AirNav   Air Wisconsin Up To $57,000 Bonus
 
 389 users online  

5MO5 St Lukes Hospital Heliport
Kansas City, Missouri, USA

GOING TO KANSAS CITY?


FAA INFORMATION EFFECTIVE 26 MARCH 2020

Location

FAA Identifier: 5MO5
Lat/Long: 39-02-47.3700N 094-35-21.5900W
39-02.789500N 094-35.359833W
39.0464917,-94.5893306
(estimated)
Elevation: 980 ft. / 299 m (estimated)
Variation: 05E (1985)
Time zone: UTC -5 (UTC -6 during Standard Time)
Zip code: 64111

Heliport Operations

Heliport use: Private use, MEDICAL USE.
Activation date: 04/1991
Control tower: no
ARTCC: KANSAS CITY CENTER
FSS: COLUMBIA FLIGHT SERVICE STATION
Attendance: CONTINUOUS
Wind indicator: lighted
Segmented circle: no
Lights: SS-SR
Beacon: white-green-yellow (heliport)
ACTVT ROTG BCN - 123.05

Heliport Communications

WX ASOS at MKC (5 nm N): PHONE 816-329-2843
WX ASOS at LXT (11 nm SE): 124.175 (816-347-9807)
WX ASOS at OJC (14 nm SW): 119.35 (913-780-6969)
WX ASOS at MCI (16 nm N): PHONE 816-329-2808
WX ASOS at IXD (19 nm SW): 135.325 (913-780-6987)

Nearby radio navigation aids

VOR radial/distance  VOR name  Freq  Var
MCIr149/15.9KANSAS CITY VORTAC113.2505E
ANXr255/21.7NAPOLEON VORTAC114.0007E

Heliport Services

Runway Information

Helipad H1

Dimensions: 52 x 50 ft. / 16 x 15 m
Surface: concrete
ROOFTOP.
Runway edge lights: PERI
Latitude: 39-02.789500N
Longitude: 094-35.359833W
Elevation: 980.0 ft.
Traffic pattern: leftleft

Helipad H2

Dimensions: 52 x 50 ft. / 16 x 15 m
Surface: concrete
Runway edge lights: PERI
Latitude: 39-02.777833N
Longitude: 094-35.360667W
Elevation: 980.0 ft.
Traffic pattern: leftleft

Heliport Ownership and Management from official FAA records

Ownership: Privately-owned
Owner: ST LUKES HOSPITAL
4401 WORNALL ROAD
KANSAS CITY, MO 64111
Phone 816-932-2000
Manager: JANE PECK
4401 WORNALL ROAD, 4401 WORNALL ROAD
KANSAS CITY, MO 64111
Phone 816-932-2000
DIRECTOR SAFETY & PREPAREDNESS DEREK COLLINS 816-932-7496

Additional Remarks

OWNER DESIRES ARPT NOT BE CHARTED.
FOR CD CTC KANSAS CITY APCH AT 816-329-2710.

Instrument Procedures

There are no published instrument procedures at 5MO5.

Some nearby airports with instrument procedures:

KMKC - Charles B Wheeler Downtown Airport (5 nm N)
KLXT - Lee's Summit Municipal Airport (11 nm SE)
KOJC - Johnson County Executive Airport (14 nm SW)
KMCI - Kansas City International Airport (16 nm N)
3GV - East Kansas City Airport (18 nm E)
KIXD - New Century AirCenter Airport (19 nm SW)
 
Loc | Ops | Rwys | IFR | FBO | Links
Com | Nav | Svcs | Stats | Notes

Kansas City Aviation Department
 
Area around 5MO5 (St Lukes Hospital Heliport)
 
Road maps at: MapQuest Bing Google
 
Aerial photo
No photo
 
Sectional chart

 
Airport distance calculator
Flying to St Lukes Hospital Heliport? Find the distance to fly.

From to 5MO5

Sunrise and sunset
Times for 06-Apr-2020
 Local
(UTC-5)
 Zulu
(UTC)
Morning civil twilight06:2711:27
Sunrise06:5511:55
Sunset19:4600:46
Evening civil twilight20:1401:14

Current date and time
Zulu (UTC)  06-Apr-2020 10:43:22
Local (UTC-5)  06-Apr-2020 05:43:22
 
METAR
KMKC 
4nm N 
060954Z 13004KT 10SM FEW018 BKN028 OVC038 14/10 A2996 RMK AO2 SLP143 T01390100
KLXT 
11nm SE 
060953Z AUTO 16009KT 10SM OVC027 13/10 A2998 RMK AO2 SLP151 T01280100
KOJC 
14nm SW 
060953Z AUTO 17008KT 10SM OVC025 12/11 A2996 RMK AO2 SLP144 T01220111
KMCI 
17nm NW 
060953Z 14008KT 10SM FEW016 OVC036 12/10 A2996 RMK AO2 SLP142 T01220100 $
KIXD 
19nm SW 
060953Z AUTO 16009KT 10SM OVC026 14/11 A2996 RMK AO2 SLP143 T01390111
TAF
KMKC 
4nm N 
060919Z 0609/0706 10004KT P6SM SCT019 SCT028 OVC040 TEMPO 0609/0612 BKN020 OVC040 FM061500 18012G20KT P6SM OVC015 FM062100 19012G20KT P6SM BKN030
KMCI 
17nm NW 
060958Z 0610/0706 14008KT P6SM FEW016 OVC035 TEMPO 0610/0612 BKN020 OVC035 FM061500 18012G20KT P6SM OVC015 FM062100 19012G20KT P6SM BKN030
KIXD 
19nm SW 
060920Z 0609/0706 16010KT P6SM BKN027 OVC035 TEMPO 0609/0612 SCT025 OVC035 FM061500 18012G20KT P6SM OVC015 FM062100 19012G20KT P6SM BKN030
NOTAMs
Click for the latest NOTAMs
NOTAMs are issued by the DoD/FAA and will open in a separate window not controlled by AirNav.

 

 
 

Would you like to see your business listed on this page?

 If your business provides an interesting product or service to pilots, flight crews, aircraft, or users of the St Lukes Hospital Heliport, you should consider listing it here.  To start the listing process, click on the button below
 
Add a business
 

Other Pages about St Lukes Hospital Heliport

Update a link
 
Copyright © AirNav, LLC. All rights reserved. Privacy Policy  Contact